Location: ??????????
(44.2167°N, 135.5333°E)
Time: 14:06:48
(UTC+00:00)

Cosmos 2263 Rocket - Pass Details

Date: 15 June 2025
Orbit: 821 x 848 km, 71.0° (Epoch: 15 July)

Event Time Altitude Azimuth Distance (km) Brightness Sun altitude
Exits shadow 12:55:29 - 206° (SSW) 2,623 4.4 -16.8°
Reaches altitude 10° 12:55:56 10° 206° (SSW) 2,453 4.3 -16.9°
Maximum altitude 13:01:35 84° 295° (WNW) 856 2.2 -17.3°
Drops below altitude 10° 13:07:18 10° 24° (NNE) 2,480 5.2 -17.8°
Sets 13:09:46 0° 25° (NNE) 3,421 5.9 -18.0°
